KF4PPJ Weather Reports


Display with metric or nautical units.
time (UTC)temp
F
wind
direction
speed
MPH
gust
MPH
rain 1hr
in
rain 24hr
in
rain mn
in
humidity
%
barometer
mb
20260831031647 62 155 1.0 1.0 0.00 0.00 0.00 71 1020.1
20260831031147 62 152 1.0 1.0 0.00 0.00 0.00 72 1020.1
20260831030645 62 147 0.0 1.0 0.00 0.00 0.00 71 1020.0
20260831030145 62 147 0.0 1.0 0.00 0.00 0.00 71 1020.1
20260831025643 62 153 0.0 1.0 0.00 0.00 0.00 71 1020.0
20260831025138 62 150 0.0 1.0 0.00 0.00 0.00 70 1020.2
20260831024635 63 148 0.0 1.0 0.00 0.00 0.00 69 1020.3
20260831024134 63 148 0.0 0.0 0.00 0.00 0.00 69 1020.2
20260831023632 64 148 0.0 1.0 0.00 0.00 0.00 68 1020.2
20260831023131 64 148 1.0 1.0 0.00 0.00 0.00 67 1020.3
20260831022626 64 149 0.0 1.0 0.00 0.00 0.00 67 1020.2
20260831022121 65 148 0.0 2.0 0.00 0.00 0.00 65 1020.5
20260831021620 65 156 0.0 3.0 0.00 0.00 0.00 64 1020.2
20260831021116 65 140 2.0 2.0 0.00 0.00 0.00 64 1020.3
20260831020612 66 156 0.0 1.0 0.00 0.00 0.00 63 1020.6
20260831015557 67 137 1.0 2.0 0.00 0.00 0.00 62 1020.7
20260831015056 68 151 0.0 0.0 0.00 0.00 0.00 60 1020.4
20260831014552 69 147 1.0 2.0 0.00 0.00 0.00 56 1020.7
20260831014048 69 164 1.0 2.0 0.00 0.00 0.00 55 1020.6
20260831013544 69 186 2.0 6.0 0.00 0.00 0.00 51 1020.7
20260831013043 69 166 1.0 2.0 0.00 0.00 0.00 52 1020.5
20260831012538 69 185 2.0 3.0 0.00 0.00 0.00 51 1020.7
20260831012033 69 166 4.0 8.0 0.00 0.00 0.00 51 1020.7
20260831011532 69 203 4.0 5.0 0.00 0.00 0.00 50 1020.9
20260831011028 69 216 3.0 5.0 0.00 0.00 0.00 49 1020.9
20260831010523 70 197 4.0 6.0 0.00 0.00 0.00 49 1020.8
20260831010019 70 202 3.0 8.0 0.00 0.00 0.00 49 1020.8
20260831005519 71 198 1.0 5.0 0.00 0.00 0.00 48 1020.8
20260831005019 72 213 4.0 5.0 0.00 0.00 0.00 47 1020.9
20260831004515 72 179 3.0 5.0 0.00 0.00 0.00 47 1020.7
20260831004010 72 247 3.0 3.0 0.00 0.00 0.00 46 1020.9
20260831003507 73 209 1.0 3.0 0.00 0.00 0.00 46 1021.0
20260831003002 73 181 2.0 3.0 0.00 0.00 0.00 45 1020.7
20260831002500 72 152 1.0 3.0 0.00 0.00 0.00 48 1021.0
20260831001955 72 162 2.0 5.0 0.00 0.00 0.00 47 1021.2
20260831001451 71 220 3.0 5.0 0.00 0.00 0.00 48 1021.1
20260831000948 71 203 1.0 6.0 0.00 0.00 0.00 48 1021.2
20260831000443 72 232 4.0 7.0 0.00 0.00 0.00 47 1021.2
20260830235941 73 239 4.0 7.0 0.00 0.00 0.00 46 1021.5
20260830235437 72 205 3.0 5.0 0.00 0.00 0.00 46 1021.3
20260830234932 72 246 4.0 5.0 0.00 0.00 0.00 46 1021.3
20260830234427 72 212 3.0 8.0 0.00 0.00 0.00 49 1021.4
20260830233922 72 181 3.0 6.0 0.00 0.00 0.00 49 1021.4
20260830233418 72 185 5.0 7.0 0.00 0.00 0.00 48 1021.4
20260830232913 72 188 5.0 7.0 0.00 0.00 0.00 51 1021.5
20260830232409 72 222 4.0 5.0 0.00 0.00 0.00 51 1021.6
20260830231906 72 201 2.0 7.0 0.00 0.00 0.00 52 1021.4
20260830231400 71 172 3.0 7.0 0.00 0.00 0.00 54 1021.6
20260830230900 71 172 3.0 5.0 0.00 0.00 0.00 53 1021.5
20260830230355 71 190 3.0 5.0 0.00 0.00 0.00 52 1021.6
20260830225854 71 149 3.0 7.0 0.00 0.00 0.00 53 1021.7
20260830225350 71 174 1.0 3.0 0.00 0.00 0.00 51 1021.6
20260830224845 71 215 3.0 5.0 0.00 0.00 0.00 52 1021.8
20260830224344 72 215 2.0 5.0 0.00 0.00 0.00 51 1021.8
20260830223841 71 160 0.0 5.0 0.00 0.00 0.00 54 1022.0
20260830223337 70 190 3.0 3.0 0.00 0.00 0.00 56 1021.9
20260830222836 69 175 5.0 6.0 0.00 0.00 0.00 56 1022.0
20260830222332 69 156 4.0 7.0 0.00 0.00 0.00 57 1022.0
20260830221827 69 185 5.0 8.0 0.00 0.00 0.00 56 1022.2
20260830221324 70 192 3.0 5.0 0.00 0.00 0.00 55 1022.2
20260830220819 69 213 5.0 6.0 0.00 0.00 0.00 55 1022.1
20260830220318 70 223 4.0 8.0 0.00 0.00 0.00 54 1022.2
20260830215816 70 196 3.0 6.0 0.00 0.00 0.00 53 1022.1
20260830215311 69 171 3.0 5.0 0.00 0.00 0.00 55 1022.3
20260830214806 69 242 5.0 7.0 0.00 0.00 0.00 55 1022.3
20260830214301 69 188 6.0 8.0 0.00 0.00 0.00 55 1022.3
20260830213801 68 213 3.0 5.0 0.00 0.00 0.00 56 1022.4
20260830213255 68 254 7.0 8.0 0.00 0.00 0.00 56 1022.2
20260830212752 68 269 5.0 6.0 0.00 0.00 0.00 58 1022.7
20260830212247 68 194 5.0 7.0 0.00 0.00 0.00 59 1022.5
20260830211746 68 224 6.0 7.0 0.00 0.00 0.00 59 1022.8
20260830211246 68 202 4.0 7.0 0.00 0.00 0.00 59 1022.9
20260830210742 67 143 4.0 6.0 0.00 0.00 0.00 60 1022.6
20260830210241 67 85 3.0 7.0 0.00 0.00 0.00 60 1022.9
20260830205738 68 211 5.0 9.0 0.00 0.00 0.00 59 1022.8
20260830205233 67 191 2.0 2.0 0.00 0.00 0.00 62 1022.9
20260830204729 67 184 3.0 6.0 0.00 0.00 0.00 62 1022.9
20260830204227 67 204 3.0 7.0 0.00 0.00 0.00 63 1022.9
20260830203723 66 206 3.0 6.0 0.00 0.00 0.00 64 1022.9
20260830203218 66 177 4.0 7.0 0.00 0.00 0.00 64 1023.0
20260830202718 65 236 5.0 8.0 0.00 0.00 0.00 65 1023.0
20260830202214 65 186 3.0 6.0 0.00 0.00 0.00 66 1022.9
20260830201713 65 213 4.0 5.0 0.00 0.00 0.00 66 1023.1
20260830201208 65 217 7.0 9.0 0.00 0.00 0.00 65 1023.1
20260830200703 66 162 2.0 7.0 0.00 0.00 0.00 64 1023.2
20260830200202 66 198 4.0 6.0 0.00 0.00 0.00 64 1023.4
20260830195658 65 185 7.0 8.0 0.00 0.00 0.00 66 1023.2
20260830195156 65 171 4.0 6.0 0.00 0.00 0.00 67 1023.2
20260830194655 65 230 4.0 6.0 0.00 0.00 0.00 65 1023.3
20260830194155 65 224 4.0 6.0 0.00 0.00 0.00 66 1023.3
20260830193650 65 248 5.0 8.0 0.00 0.00 0.00 67 1023.5
20260830193150 65 180 4.0 6.0 0.00 0.00 0.00 66 1023.3
20260830192646 65 183 4.0 8.0 0.00 0.00 0.00 67 1023.2
20260830192140 65 243 6.0 7.0 0.00 0.00 0.00 66 1023.4
20260830191636 64 228 5.0 6.0 0.00 0.00 0.00 68 1023.3
20260830191132 65 249 4.0 7.0 0.00 0.00 0.00 67 1023.3
20260830190627 64 200 2.0 5.0 0.00 0.00 0.00 68 1023.4
20260830190122 63 236 2.0 5.0 0.00 0.00 0.00 69 1023.4
20260830185620 64 230 7.0 8.0 0.00 0.00 0.00 69 1023.3
20260830185116 63 227 4.0 6.0 0.00 0.00 0.00 69 1023.4
20260830184615 64 228 3.0 5.0 0.00 0.00 0.00 69 1023.4
20260830184109 63 218 3.0 6.0 0.00 0.00 0.00 70 1023.5
20260830183604 63 207 5.0 7.0 0.00 0.00 0.00 69 1023.5
20260830183100 63 170 3.0 5.0 0.00 0.00 0.00 70 1023.3
20260830182555 62 262 3.0 6.0 0.00 0.00 0.00 72 1023.3
20260830182052 62 188 2.0 5.0 0.00 0.00 0.00 71 1023.7
20260830181548 62 218 3.0 6.0 0.00 0.00 0.00 71 1023.5
20260830181047 63 226 5.0 8.0 0.00 0.00 0.00 70 1023.5
20260830180546 62 187 5.0 9.0 0.00 0.00 0.00 72 1023.5
20260830180046 63 176 2.0 5.0 0.00 0.00 0.00 70 1023.3
20260830175545 62 180 3.0 7.0 0.00 0.00 0.00 72 1023.6
20260830175040 61 167 4.0 6.0 0.00 0.00 0.00 72 1023.4
20260830174536 61 209 3.0 6.0 0.00 0.00 0.00 74 1023.3
20260830174031 61 132 2.0 5.0 0.00 0.00 0.00 74 1023.7
20260830173527 61 228 5.0 7.0 0.00 0.00 0.00 73 1023.7
20260830173021 61 237 6.0 11.0 0.00 0.00 0.00 73 1023.5
20260830172518 62 189 2.0 5.0 0.00 0.00 0.00 73 1023.5
20260830172014 61 176 3.0 5.0 0.00 0.00 0.00 75 1023.4
20260830171509 60 204 3.0 10.0 0.00 0.00 0.00 75 1023.5
20260830171009 61 193 3.0 6.0 0.00 0.00 0.00 74 1023.6
20260830170503 60 222 2.0 5.0 0.00 0.00 0.00 75 1023.4
20260830170001 60 197 3.0 6.0 0.00 0.00 0.00 77 1023.4
20260830165458 60 204 3.0 9.0 0.00 0.00 0.00 76 1023.2
20260830164953 59 150 3.0 6.0 0.00 0.00 0.00 77 1023.5
20260830164449 59 221 8.0 13.0 0.00 0.00 0.00 76 1023.5
20260830163945 59 194 3.0 3.0 0.00 0.00 0.00 77 1023.5
20260830163442 59 214 3.0 5.0 0.00 0.00 0.00 77 1023.2
20260830162941 59 194 1.0 2.0 0.00 0.00 0.00 78 1023.2
20260830162437 59 202 3.0 6.0 0.00 0.00 0.00 78 1023.4
20260830161937 59 161 1.0 5.0 0.00 0.00 0.00 78 1023.5
20260830161431 59 218 2.0 5.0 0.00 0.00 0.00 77 1023.5
20260830160926 59 133 7.0 10.0 0.00 0.00 0.00 77 1023.5
20260830160423 59 193 4.0 6.0 0.00 0.00 0.00 77 1023.6
20260830155917 59 226 4.0 7.0 0.00 0.00 0.00 77 1023.4
20260830155414 58 180 2.0 2.0 0.00 0.00 0.00 77 1023.4
20260830154908 59 222 3.0 5.0 0.00 0.00 0.00 77 1023.4
20260830154404 59 161 0.0 5.0 0.00 0.00 0.00 78 1023.6
20260830153901 59 202 5.0 7.0 0.00 0.00 0.00 77 1023.4
20260830153356 59 193 2.0 5.0 0.00 0.00 0.00 77 1023.3
20260830152855 59 111 1.0 2.0 0.00 0.00 0.00 78 1023.5
20260830152350 59 144 1.0 2.0 0.00 0.00 0.00 78 1023.1
20260830151844 58 112 0.0 2.0 0.00 0.00 0.00 78 1023.3
20260830151343 58 108 1.0 3.0 0.00 0.00 0.00 78 1023.2
20260830150839 58 232 3.0 5.0 0.00 0.00 0.00 78 1023.5
20260830150338 58 115 1.0 3.0 0.00 0.00 0.00 78 1023.5
20260830145833 58 110 0.0 3.0 0.00 0.00 0.00 79 1023.5
20260830145328 57 179 0.0 2.0 0.00 0.00 0.00 80 1023.5
20260830144823 57 207 2.0 2.0 0.00 0.00 0.00 80 1023.4
20260830144319 57 158 0.0 1.0 0.00 0.00 0.00 81 1023.3
20260830143815 57 155 0.0 3.0 0.00 0.00 0.00 81 1023.5
20260830143314 56 200 1.0 2.0 0.00 0.00 0.00 84 1023.4
20260830142809 55 156 0.0 0.0 0.00 0.00 0.00 86 1023.2
20260830142305 55 153 0.0 0.0 0.00 0.00 0.00 86 1023.2
20260830141759 55 145 0.0 0.0 0.00 0.00 0.00 87 1023.2
20260830141254 55 149 0.0 0.0 0.00 0.00 0.00 88 1023.1
20260830140749 54 149 0.0 0.0 0.00 0.00 0.00 88 1022.8
20260830140249 54 151 0.0 0.0 0.00 0.00 0.00 88 1023.0
20260830135744 54 141 0.0 0.0 0.00 0.00 0.00 87 1023.0
20260830135239 54 138 0.0 0.0 0.00 0.00 0.00 87 1022.7
20260830134735 54 151 0.0 0.0 0.00 0.00 0.00 87 1023.0
20260830134230 55 150 0.0 0.0 0.00 0.00 0.00 86 1022.8
20260830133726 55 152 0.0 0.0 0.00 0.00 0.00 86 1022.9
20260830133221 55 152 0.0 0.0 0.00 0.00 0.00 86 1022.9
20260830132716 55 152 0.0 1.0 0.00 0.00 0.00 87 1022.7
20260830132212 55 152 0.0 1.0 0.00 0.00 0.00 87 1022.8
20260830131712 55 153 0.0 0.0 0.00 0.00 0.00 87 1022.9
20260830131211 55 146 1.0 2.0 0.00 0.00 0.00 87 1023.1
20260830130706 55 151 0.0 1.0 0.00 0.00 0.00 87 1022.9
20260830130206 55 154 0.0 1.0 0.00 0.00 0.00 87 1022.8
20260830125706 55 152 0.0 1.0 0.00 0.00 0.00 87 1022.8
20260830125201 55 151 0.0 0.0 0.00 0.00 0.00 87 1022.8
20260830124658 55 152 0.0 0.0 0.00 0.00 0.00 87 1022.6
20260830124154 55 162 1.0 1.0 0.00 0.00 0.00 87 1022.8
20260830123651 55 146 0.0 0.0 0.00 0.00 0.00 87 1022.7
20260830123146 55 147 0.0 0.0 0.00 0.00 0.00 87 1022.7
20260830122644 55 144 0.0 0.0 0.00 0.00 0.00 87 1022.8
20260830122139 55 145 0.0 0.0 0.00 0.00 0.00 87 1022.8
20260830121635 55 149 0.0 0.0 0.00 0.00 0.00 87 1022.9
20260830121134 55 148 0.0 0.0 0.00 0.00 0.00 87 1023.1
20260830120629 55 148 0.0 0.0 0.00 0.00 0.00 87 1022.9
20260830120125 55 148 0.0 0.0 0.00 0.00 0.00 86 1022.9
20260830115621 56 145 0.0 0.0 0.00 0.00 0.00 86 1022.8
20260830115116 56 150 0.0 0.0 0.00 0.00 0.00 86 1022.9
20260830114613 56 158 0.0 0.0 0.00 0.00 0.00 86 1022.7
20260830114112 56 146 0.0 1.0 0.00 0.00 0.00 86 1023.0
20260830113608 56 146 0.0 1.0 0.00 0.00 0.00 86 1022.7
20260830113103 56 152 0.0 0.0 0.00 0.00 0.00 86 1022.9
20260830112559 56 143 0.0 1.0 0.00 0.00 0.00 86 1022.7
20260830112055 56 145 0.0 1.0 0.00 0.00 0.00 86 1022.7
20260830111551 56 149 0.0 1.0 0.00 0.00 0.00 86 1022.5
20260830111047 56 147 0.0 0.0 0.00 0.00 0.00 86 1022.8
20260830110546 56 127 0.0 0.0 0.00 0.00 0.00 86 1022.7
20260830110042 56 152 0.0 0.0 0.00 0.00 0.00 85 1022.6
20260830105537 56 154 0.0 1.0 0.00 0.00 0.00 85 1022.8
20260830105033 56 135 0.0 1.0 0.00 0.00 0.00 86 1022.6
20260830104529 56 140 0.0 1.0 0.00 0.00 0.00 85 1022.9
20260830104025 56 151 0.0 0.0 0.00 0.00 0.00 85 1022.9
20260830103520 56 155 0.0 0.0 0.00 0.00 0.00 86 1022.8
20260830103014 56 156 0.0 1.0 0.00 0.00 0.00 86 1022.9
20260830102514 56 149 0.0 0.0 0.00 0.00 0.00 86 1022.8
20260830102009 56 151 0.0 0.0 0.00 0.00 0.00 86 1022.7
20260830101505 56 145 0.0 1.0 0.00 0.00 0.00 85 1022.8
20260830101004 56 191 1.0 1.0 0.00 0.00 0.00 85 1022.8
20260830100504 56 154 1.0 1.0 0.00 0.00 0.00 84 1022.7
20260830100002 56 144 1.0 1.0 0.00 0.00 0.00 84 1022.5
20260830095458 57 162 0.0 1.0 0.00 0.00 0.00 83 1022.4
20260830094954 57 147 0.0 0.0 0.00 0.00 0.00 83 1022.4
20260830094450 57 160 0.0 0.0 0.00 0.00 0.00 83 1022.6
20260830093945 57 151 0.0 1.0 0.00 0.00 0.00 83 1022.7
20260830093440 57 157 0.0 1.0 0.00 0.00 0.00 82 1022.5
20260830092936 57 158 0.0 2.0 0.00 0.00 0.00 83 1022.5
20260830092431 57 156 0.0 0.0 0.00 0.00 0.00 83 1022.4
20260830091929 57 145 0.0 1.0 0.00 0.00 0.00 83 1022.4
20260830091428 57 149 0.0 1.0 0.00 0.00 0.00 83 1022.5
20260830090927 57 152 0.0 1.0 0.00 0.00 0.00 83 1022.5
20260830090422 57 152 0.0 0.0 0.00 0.00 0.00 83 1022.6
20260830085918 57 152 0.0 0.0 0.00 0.00 0.00 83 1022.5
20260830085412 57 150 0.0 0.0 0.00 0.00 0.00 83 1022.7
20260830084908 57 158 0.0 0.0 0.00 0.00 0.00 83 1022.5
20260830084403 57 159 0.0 1.0 0.00 0.00 0.00 83 1022.6
20260830083859 57 151 0.0 0.0 0.00 0.00 0.00 82 1022.5
20260830083355 57 156 0.0 0.0 0.00 0.00 0.00 82 1022.6
20260830082854 57 150 0.0 1.0 0.00 0.00 0.00 82 1022.5
20260830082349 57 160 0.0 1.0 0.00 0.00 0.00 82 1022.5
20260830081844 57 151 1.0 1.0 0.00 0.00 0.00 83 1022.6
20260830081344 57 158 0.0 0.0 0.00 0.00 0.00 83 1022.4
20260830080838 56 156 0.0 0.0 0.00 0.00 0.00 83 1022.4
20260830080330 56 110 1.0 3.0 0.00 0.00 0.00 84 1022.5
20260830075828 56 152 0.0 0.0 0.00 0.00 0.00 84 1022.4
20260830075324 56 154 0.0 0.0 0.00 0.00 0.00 83 1022.6
20260830074819 56 157 0.0 0.0 0.00 0.00 0.00 84 1022.4
20260830074314 57 149 0.0 0.0 0.00 0.00 0.00 84 1022.4
20260830073810 57 148 0.0 0.0 0.00 0.00 0.00 84 1022.5
20260830073307 57 156 0.0 0.0 0.00 0.00 0.00 83 1022.3
20260830072806 57 112 0.0 1.0 0.00 0.00 0.00 82 1022.3
20260830072306 58 167 0.0 2.0 0.00 0.00 0.00 82 1022.4
20260830071801 58 168 0.0 2.0 0.00 0.00 0.00 81 1022.2
20260830071256 58 159 1.0 3.0 0.00 0.00 0.00 80 1022.2
20260830070755 58 193 2.0 6.0 0.00 0.00 0.00 80 1022.2
20260830070250 58 173 1.0 5.0 0.00 0.00 0.00 81 1022.1
20260830065749 58 172 1.0 2.0 0.00 0.76 0.76 82 1022.4
20260830065243 58 183 2.0 3.0 0.00 0.76 0.76 82 1022.2
20260830064741 59 193 2.0 2.0 0.00 0.76 0.76 81 1022.3
20260830064238 59 164 2.0 2.0 0.00 0.76 0.76 80 1022.1
20260830063731 59 172 2.0 5.0 0.00 0.76 0.76 79 1022.0
20260830063230 59 204 1.0 6.0 0.00 0.76 0.76 79 1022.1
20260830062725 59 197 1.0 5.0 0.00 0.76 0.76 79 1022.2
20260830062215 59 165 2.0 3.0 0.00 0.76 0.76 79 1022.1
20260830061714 59 194 4.0 5.0 0.00 0.76 0.76 78 1022.3
20260830061210 59 176 2.0 5.0 0.00 0.76 0.76 78 1021.9
20260830060707 59 147 3.0 7.0 0.00 0.76 0.76 79 1022.3
20260830060203 59 167 0.0 2.0 0.00 0.76 0.76 79 1021.9
20260830055657 59 222 1.0 2.0 0.00 0.76 0.76 79 1022.1
20260830055154 59 170 3.0 7.0 0.00 0.76 0.76 78 1022.2
20260830054649 60 165 1.0 3.0 0.00 0.76 0.76 78 1022.3
20260830054143 60 197 3.0 3.0 0.00 0.76 0.76 78 1022.1
20260830053640 60 165 1.0 6.0 0.00 0.76 0.76 76 1022.1
20260830053139 60 207 3.0 5.0 0.00 0.76 0.76 75 1022.2
20260830052634 60 207 1.0 5.0 0.00 0.76 0.76 76 1022.1
20260830052130 60 191 1.0 5.0 0.00 0.76 0.76 76 1022.0
20260830051624 60 150 4.0 6.0 0.00 0.76 0.76 75 1022.1
20260830051121 61 175 6.0 10.0 0.00 0.76 0.76 75 1022.0
20260830050618 61 203 5.0 9.0 0.00 0.76 0.76 74 1021.8
20260830050114 61 167 4.0 8.0 0.00 0.76 0.76 75 1021.9
20260830045607 61 177 4.0 8.0 0.00 0.76 0.76 75 1021.9
20260830045103 61 208 2.0 6.0 0.00 0.76 0.76 75 1021.8
20260830044602 61 213 3.0 5.0 0.00 0.76 0.76 74 1021.9
20260830044057 61 180 3.0 5.0 0.00 0.76 0.76 73 1021.7
20260830043552 61 212 5.0 9.0 0.00 0.76 0.76 72 1021.8
20260830043051 61 157 4.0 9.0 0.00 0.76 0.76 73 1021.9
20260830042549 61 123 4.0 8.0 0.00 0.76 0.76 73 1021.8
20260830042044 61 186 5.0 7.0 0.00 0.76 0.76 74 1021.9
20260830041543 61 188 4.0 6.0 0.00 0.76 0.76 74 1021.9
20260830041043 61 182 1.0 2.0 0.00 0.76 0.76 73 1021.3
20260830040538 61 177 1.0 3.0 0.00 0.76 0.76 72 1021.5
20260830040034 62 160 0.0 7.0 0.00 0.76 0.76 71 1021.6
20260830035531 62 209 4.0 5.0 0.00 0.76 0.76 72 1021.4
20260830035027 62 168 1.0 2.0 0.00 0.76 0.76 72 1021.3
20260830034523 62 190 3.0 5.0 0.00 0.76 0.76 72 1021.3
20260830034021 62 204 3.0 5.0 0.00 0.76 0.76 72 1021.0
20260830033517 62 190 4.0 7.0 0.00 0.76 0.76 71 1021.1
20260830033012 62 197 2.0 3.0 0.00 0.76 0.76 72 1020.9
20260830032511 62 173 2.0 5.0 0.00 0.76 0.76 70 1021.0
20260830032007 62 181 1.0 3.0 0.00 0.76 0.76 70 1020.8